Weather History for KEWR - March, 2012

Change the Weather History Date:

Monday, March 12, 2012

  Actual Average Record
Temperature  
Mean Temperature 57 °F 41 °F  
Max Temperature 73 °F 49 °F 73 °F (2012)
Min Temperature 40 °F 32 °F 13 °F (1934)
Degree Days  
Heating Degree Days 8 24  
Month to date heating degree days 231 310  
Since 1 July heating degree days 3141 3945  
Cooling Degree Days 0 0  
Month to date cooling degree days 0 0  
Year to date cooling degree days 0 0  
Growing Degree Days 6 (Base 50)    
Moisture  
Dew Point 32 °F    
Average Humidity 45    
Maximum Humidity 70    
Minimum Humidity 20    
Precipitation  
Precipitation 0.00 in 0.13 in 2.35 in (1962)
Month to date precipitation 0.43 1.50  
Year to date precipitation 4.65 7.92  
Snow  
Snow 0.00 in 0.20 in 5.30 in (1959)
Month to date snowfall 0.0 2.5  
Since 1 July snowfall 8.8 25.5  
Snow Depth 0.00 in    
Sea Level Pressure  
Sea Level Pressure 30.25 in    
Wind  
Wind Speed 8 mph (SSW)    
Max Wind Speed 16 mph    
Max Gust Speed 25 mph    
Visibility 10 miles    
Events      
T = Trace of Precipitation, MM = Missing Value Source: NWS Daily Summary

Daily Weather History Graph

Daily Weather History Graph

Search for Another Location

Airport or City:

Trip Planner

Search our weather history database for the weather conditions in past years. The results will help you decide how hot, cold, wet, or windy it might be!

Date:

Astronomy

Mar. 12, 2012 Rise Set
Actual Time 7:12 AM EDT 7:00 PM EDT
Civil Twilight 6:45 AM EDT 7:27 PM EDT
Nautical Twilight 6:13 AM EDT 7:59 PM EDT
Astronomical Twilight 5:41 AM EDT 8:31 PM EDT
Moon No Moon Rise 9:29 AM EDT (3/12)
Length of Visible Light 12h 42m
Length of Day
11h 48m
Waning Gibbous, 76% of the Moon is Illuminated
Mar 12
Waning Gibbous
Mar 14
Last Quarter
Mar 22
New
Mar 30
First Quarter
Apr 6
Full

Hourly Weather History & Observations

Time (EDT) Temp. Windchill Dew Point Humidity Pressure Visibility Wind Dir Wind Speed Gust Speed Precip Events Conditions
12:51 AM 48.2 °F - 28.4 °F 46% 30.35 in 10.0 mi SW 11.5 mph - N/A   Clear
1:51 AM 45.0 °F 40.6 °F 28.9 °F 53% 30.35 in 10.0 mi SW 8.1 mph - N/A   Clear
2:51 AM 44.1 °F 40.8 °F 28.9 °F 55% 30.34 in 10.0 mi SSW 5.8 mph - N/A   Scattered Clouds
3:51 AM 43.0 °F 39.5 °F 30.0 °F 60% 30.32 in 10.0 mi SW 5.8 mph - N/A   Mostly Cloudy
4:51 AM 44.1 °F 39.0 °F 30.0 °F 58% 30.31 in 10.0 mi SW 9.2 mph - N/A   Mostly Cloudy
5:51 AM 42.1 °F 37.1 °F 30.0 °F 62% 30.30 in 10.0 mi SSW 8.1 mph - N/A   Mostly Cloudy
6:51 AM 39.9 °F 35.1 °F 30.0 °F 68% 30.32 in 10.0 mi SSW 6.9 mph - N/A   Mostly Cloudy
7:51 AM 43.0 °F 38.8 °F 32.0 °F 65% 30.32 in 10.0 mi SSW 6.9 mph - N/A   Mostly Cloudy
8:51 AM 46.0 °F 41.4 °F 32.0 °F 58% 30.32 in 10.0 mi SW 9.2 mph - N/A   Mostly Cloudy
9:51 AM 51.1 °F - 32.0 °F 48% 30.32 in 10.0 mi SW 9.2 mph - N/A   Mostly Cloudy
10:51 AM 55.9 °F - 33.1 °F 42% 30.31 in 10.0 mi SSW 10.4 mph - N/A   Mostly Cloudy
11:51 AM 63.0 °F - 32.0 °F 31% 30.30 in 10.0 mi WSW 10.4 mph - N/A   Mostly Cloudy
12:51 PM 66.9 °F - 30.0 °F 25% 30.27 in 10.0 mi SW 10.4 mph - N/A   Mostly Cloudy
1:51 PM 69.8 °F - 30.2 °F 23% 30.23 in 10.0 mi SW 6.9 mph - N/A   Mostly Cloudy
2:51 PM 72.0 °F - 28.9 °F 20% 30.20 in 10.0 mi WSW 9.2 mph - N/A   Mostly Cloudy
3:51 PM 68.0 °F - 32.0 °F 26% 30.19 in 9.0 mi SSE 11.5 mph - N/A   Mostly Cloudy
4:51 PM 70.0 °F - 30.9 °F 24% 30.17 in 10.0 mi South 11.5 mph - N/A   Mostly Cloudy
5:51 PM 66.9 °F - 28.9 °F 24% 30.16 in 10.0 mi WSW 15.0 mph - N/A   Mostly Cloudy
6:51 PM 66.0 °F - 30.9 °F 27% 30.16 in 10.0 mi WSW 10.4 mph - N/A   Mostly Cloudy
7:51 PM 62.6 °F - 32.0 °F 32% 30.16 in 10.0 mi SSW 4.6 mph - N/A   Overcast
8:51 PM 62.6 °F - 33.8 °F 34% 30.16 in 10.0 mi South 5.8 mph - N/A   Overcast
9:51 PM 62.1 °F - 34.0 °F 35% 30.15 in 10.0 mi South 4.6 mph - N/A   Overcast
10:51 PM 60.8 °F - 37.4 °F 42% 30.14 in 10.0 mi South 8.1 mph - N/A   Overcast
11:51 PM 59.0 °F - 39.9 °F 49% 30.13 in 10.0 mi South 8.1 mph - N/A   Overcast